Skip Page Navigation
NASA JPL Caltech
NASA Logo - Jet Propulsion Laboratory + View the NASA Portal
+ Center for Near-Earth Object Studies
JPL Home Earth Solar System Stars & Galaxies Technology
JPL Solar System Dynamics
BODIES ORBITS EPHEMERIDES TOOLS PHYSICAL DATA DISCOVERY FAQ SITE MAP
JPL Small-Body Database Browser
Search: [ help ]  
43965 (1997 EO32)
Classification: Main-belt Asteroid          SPK-ID: 2043965
Ephemeris | Orbit Diagram | Orbital Elements | Mission Design | Physical Parameters | Discovery Circumstances | Close-Approach Data ]

[ hide orbit diagram ]

For accurate long-term ephemerides, please instead use our Horizons system.This orbit viewer was implemented using two-body methods, and hence should not be used for determining accurate long-term trajectories (over several years or decades) or planetary encounter circumstances.


Orbital Elements at Epoch 2459396.5 (2021-Jul-01.0) TDB
Reference: JPL 25 (heliocentric ecliptic J2000)
 Element Value Uncertainty (1-sigma)   Units 
e .1671571764143301 3.3143e-08  
a 2.608348410771462 9.1641e-09 au
q 2.172344255322099 8.5573e-08 au
i .9128644051510409 4.8675e-06 deg
node 161.4630014233827 0.00019122 deg
peri 129.1870295553113 0.00019186 deg
M 185.7921379458436 1.3577e-05 deg
tp 2460141.081223091283
(2023-Jul-15.58122309)
5.7986e-05 TDB
period 1538.674759865504
4.21
8.1089e-06
2.22e-08
d
yr
n .2339675735185698 1.233e-09 deg/d
Q 3.044352566220825 1.0696e-08 au
  Orbit Determination Parameters
   # obs. used (total)      943  
   data-arc span      9605 days (26.30 yr)  
   first obs. used      1994-10-02  
   last obs. used      2021-01-18  
   planetary ephem.      DE441  
   SB-pert. ephem.      SB441-N16  
   condition code      0  
   norm. resid. RMS      .52008  
   source      ORB  
   producer      Otto Matic  
   solution date      2021-Apr-13 09:24:40  

Additional Information
 Earth MOID = 1.15587 au 
 Jupiter MOID = 2.12908 au 
 T_jup = 3.391 
[ show covariance matrix ]

Ephemeris | Orbit Diagram | Orbital Elements | Mission Design | Physical Parameters | Discovery Circumstances | Close-Approach Data ]

Physical Parameter Table
Parameter Symbol Value Units Sigma Reference Notes
absolute magnitude H 15.93   n/a MPCxxxxx  
diameter diameter 4.017 km 0.064 urn:nasa:pds:neowise_diameters_albedos::2.0[mainbelt] (http://adsabs.harvard.edu/abs/2011ApJ...741...68M)  
geometric albedo albedo 0.048   0.004 urn:nasa:pds:neowise_diameters_albedos::2.0[mainbelt] (http://adsabs.harvard.edu/abs/2011ApJ...741...68M)  

43965 (1997 EO32)          Discovered 1997-Mar-11 by Spacewatch at Kitt Peak
Reference: 20020822/Numbers.arcLast Updated: 2004-04-19

[ show close-approach data ]
Alternate Designations
 1997 EO32 = 1994 TK4 
Ephemeris | Orbit Diagram | Orbital Elements | Mission Design | Physical Parameters | Discovery Circumstances | Close-Approach Data ]
ABOUT SSD CREDITS/AWARDS PRIVACY/COPYRIGHT GLOSSARY LINKS
FirstGov 2021-Aug-01 02:26 UT
(server date/time)  
NASA Home Page
Site Manager:   Ryan S. Park
Webmaster  Alan B. Chamberlin